Facebook Twitter YouTube


Racing Home >Top Performers > horse

TOP PERFORMERS IN 2021

Leading Horses

Click on a link below to see the top 50 Leading Horses in that category. Only North American racing statistics are shown, with all earnings expressed in US currency.

  All Ages Earnings Wins Record
  2-Year-Olds Earnings Wins Record
  3-Year-Olds Earnings Wins Record
  Aged Earnings Wins Record

All Age by Record - 2021

Click on a column heading to sort these 50 rows only. To see a report of the top horses using other categories, please select a link at the top of the page.

Horse Name Age Sex Gait Sts 1st 2nd 3rd Earnings Record Size
LET IT RIDE N 8 G P 2 2 0 0 $29,000 1:48.1 m
JJ FLYNN 8 G P 3 3 0 0 $21,000 1:49.2 f
DE LOS CIELOS DEO 5 G P 3 1 0 0 $11,020 1:49.2 m
SEEING EYE SINGLE 6 G P 4 2 0 1 $12,950 1:49.3 f
SOUTHWIND AMAZON 11 G P 4 1 1 0 $8,170 1:49.3 f
NUMBERED ACCOUNT 5 G P 3 2 0 0 $9,324 1:49.4 f
MY PAL JOE 4 G P 3 2 0 1 $18,600 1:49.4 m
SHNITZLEDOSOMETHIN 6 H P 3 2 1 0 $25,250 1:49.4 m
THE CANDYMAN CAN 4 G P 1 1 0 0 $8,750 1:49.4 m
TIGER THOMPSON N 8 G P 3 2 1 0 $25,800 1:50.0 f
SOMEBADDUDE 6 G P 2 1 0 0 $7,750 1:50.0 m
WESTERN JOE 7 G P 2 1 0 0 $11,740 1:50.0 m
ITSROCKANDROLL A 6 G P 3 2 0 1 $22,400 1:50.2 f
REAL PEACE 6 G P 4 1 1 1 $9,455 1:50.2 f
TEMPUS SEELSTER 8 M P 3 2 0 0 $10,420 1:50.2 f
ITALIAN DELIGHT N 8 G P 3 3 0 0 $19,000 1:50.2 m
RESPECT OUR FLAG 5 G P 3 1 0 0 $8,875 1:50.2 m
STELLENBOSCH 7 M P 3 1 0 1 $12,380 1:50.2 m
LYONS NIGHT HAWK 5 G P 3 1 0 0 $5,500 1:50.3 f
PROPER ONE 7 G P 3 1 0 0 $5,244 1:50.3 f
REBELLIOUS 7 G P 2 1 0 0 $5,500 1:50.3 f
U S CAPTAIN 5 H P 3 1 0 0 $9,600 1:50.3 f
CHASER HANOVER 5 G P 4 2 1 0 $15,125 1:50.3 m
FAN OF TERROR 9 G P 3 3 0 0 $24,900 1:50.4 f
IDEAL FEELING 6 H P 4 1 1 1 $8,075 1:50.4 f
SKIP TO MY LOU 5 G P 3 2 0 1 $12,070 1:50.4 f
ON ACCIDENT 5 G P 3 1 1 0 $8,125 1:50.4 m
PADUKA N 7 G P 3 1 1 0 $12,500 1:50.4 m
THNDRFRMTHETHRON N 7 G P 3 2 0 1 $10,250 1:50.4 m
B LIKE CRUISER 5 G P 4 2 0 0 $8,250 1:51.0 f
CLOUDBREAK 5 G P 3 1 0 0 $1,820 1:51.0 f
FULL SEND 4 G P 3 1 2 0 $12,250 1:51.0 f
STAR MESSENGER 10 G P 3 1 0 0 $4,500 1:51.0 f
BLOOD LINE 7 H P 4 1 1 1 $11,985 1:51.0 m
DECISION DAY 6 G P 3 1 0 2 $10,810 1:51.0 m
GOOD ROCKIN 5 G P 3 1 1 0 $9,375 1:51.0 m
CAROLINA BEACH 7 G P 3 1 1 1 $13,770 1:51.1 f
DA MAGICIAN 7 G P 3 2 0 0 $18,000 1:51.1 f
DINA BOLT N 5 G P 3 2 1 0 $16,250 1:51.1 f
LOUD SPLASH 5 H P 4 1 1 2 $7,600 1:51.1 f
MARLOE HANOVER 4 M P 2 2 0 0 $20,000 1:51.1 f
SECRET THREAT 9 H P 4 3 1 0 $46,000 1:51.1 f
TULHURSTSANTANNA A 8 G P 3 1 0 0 $7,750 1:51.1 m
BLUE IVY 5 M P 2 2 0 0 $13,500 1:51.2 h
ALWAYS FLASHING A 8 G P 3 1 0 1 $10,500 1:51.2 f
KEEP ON ROCKING A 9 G P 2 2 0 0 $10,750 1:51.2 f
LYONS COPPERTOP 5 G P 3 1 0 1 $7,152 1:51.2 f
MISTER OHANZEE A 7 G P 2 1 0 0 $3,250 1:51.2 f
PAT MATTERS 6 M T 3 2 0 0 $21,600 1:51.2 f
ROCK N ROW 9 G P 3 1 1 1 $8,640 1:51.2 f
SHADY'S SHARK BAIT 5 G P 3 1 0 0 $9,000 1:51.2 f
SLICK TONY 6 H P 3 1 1 0 $9,960 1:51.2 f
VIPER 4 G P 3 3 0 0 $18,000 1:51.2 f
WHEN YOU DANCE 6 G P 4 1 1 1 $7,960 1:51.2 f
EFFRONTE A 8 G P 3 1 0 0 $3,750 1:51.2 m
Updated: 01/27/2021

Looking for even more information? Pathway has expanded reports on every harness racing participant in North America, as well as online industry leaders statistics updated daily. Set up your free USTA Account at myaccount.ustrotting.com which will give you access to Pathway and the expanded Statistics reporting area. For more information on Pathway, please visit pathway.ustrotting.com.

Comments or questions on these reports, please contact webmaster@ustrotting.com.